Regional Weather Roundup
Issued by NWS Charleston, SC

Current Version | Previous Version | Text Only | Print | Product List | Glossary Off
Versions: 1 2 3 4 5 6 7 8 9 10 11 12 13 14 15 16 17 18 19 20 21 22 23 24 25 26 27 28 29 30 31 32 33 34 35 36 37 38 39 40 41 42 43 44 45 46 47 48 49 50

000
ASUS42 KCHS 051213
RWRCHS

REGIONAL WEATHER ROUNDUP
NATIONAL WEATHER SERVICE CHARLESTON SC
800 AM EDT THU MAY 05 2016

NOTE: "FAIR" INDICATES FEW OR NO CLOUDS BELOW 12,000 FEET WITH NO
SIGNIFICANT WEATHER AND/OR OBSTRUCTIONS TO VISIBILITY.

NOT ALL STATIONS ARE QUALITY CONTROLLED. USE DATA WITH CAUTION...
ESPECIALLY DEWPOINT OBSERVATIONS.

SCZ027-030-031-034>040-042>050-051300-
...SOUTHEAST SOUTH CAROLINA...

CITY           SKY/WX    TMP DP  RH WIND       PRES   REMARKS
N CHARLESTON   MOSUNNY   58  48  69 W12G21    29.61R
6HR MIN TEMP:  56; 6HR MAX TEMP:  61;

WATERFRONT PRK   N/A     59  50  72 W10       29.60R
MOUNT PLEASANT FAIR      61  50  67 W10       29.60S
JOHNS ISLAND   FAIR      61  50  67 W17       29.62R
PINOPOLIS        N/A     61  52  72 W14       29.51S
MONCKS CORNER  FAIR      54  45  71 W6        29.60S
SUMMERVILLE    FAIR      55  50  82 W8        29.63R
BEAUFORT MCAS  SUNNY     59  49  69 W14G23    29.65R
6HR MIN TEMP:  57; 6HR MAX TEMP:  62;

BEAUFORT ARPT  FAIR      61  48  63 W14G24    29.65R
HILTON HEAD IS NOT AVBL
WALTERBORO     SUNNY     59  50  72 W14       29.64R
ALLENDALE      FAIR      57  48  72 VRB6      29.65R

...SOUTHERN MIDLANDS AND PEE DEE...

CITY           SKY/WX    TMP DP  RH WIND       PRES   REMARKS
GEORGETOWN     FAIR      55  50  82 W7        29.59R
KINGSTREE      PTSUNNY   54  46  76 W8        29.58R
ORANGEBURG     SUNNY     56  47  71 NW10G18   29.63R
6HR MIN TEMP:  55; 6HR MAX TEMP:  59;

BARNWELL       FAIR      57  52  82 W9        29.66R
AIKEN          FAIR      52  43  71 W7        29.69R
MANNING        FAIR      55  46  71 W3        29.59S
COLUMBIA       MOSUNNY   59  45  59 W13       29.62R
6HR MIN TEMP:  54; 6HR MAX TEMP:  60;

SUMTER         MOSUNNY   57  47  69 NW13      29.57R
6HR MIN TEMP:  54; 6HR MAX TEMP:  58;

FLORENCE       CLOUDY    57  50  77 W8        29.56R
6HR MIN TEMP:  54; 6HR MAX TEMP:  62;

MYRTLE BEACH   SUNNY     59  46  63 W6        29.57S
N MYRTLE BEACH MOSUNNY   59  50  72 W7        29.53S
6HR MIN TEMP:  57; 6HR MAX TEMP:  62;


$$

GAZ063-065-086>088-099>101-113>116-118-119-134>141-150-051300-
...SOUTHEAST GEORGIA...

CITY           SKY/WX    TMP DP  RH WIND       PRES   REMARKS
SAVANNAH ARPT  MOSUNNY   58  49  72 W16G23    29.68R
6HR MIN TEMP:  54; 6HR MAX TEMP:  60;

HUNTER AAF     MOSUNNY   58  51  76 W15G22    29.66R
6HR MIN TEMP:  54; 6HR MAX TEMP:  59;

FORT STEWART   SUNNY     59  49  68 W12G17    29.68R
6HR MIN TEMP:  57; 6HR MAX TEMP:  61;

STATESBORO     SUNNY     60  53  78 NW12      29.69R
SYLVANIA       SUNNY     57  52  84 NW10      29.69R
CLAXTON        FAIR      58  53  82 W9        29.71R

...CSRA...CENTRAL AND FAR SOUTHEAST GEORGIA...

CITY           SKY/WX    TMP DP  RH WIND       PRES   REMARKS
THOMSON        SUNNY     55  50  84 W9        29.73R
AUGUSTA-BUSH   SUNNY     56  47  71 NW13      29.67R
6HR MIN TEMP:  53; 6HR MAX TEMP:  61;

AUGUSTA-DANIEL SUNNY     56  45  66 NW9       29.68R
SWAINSBORO     FAIR      55  50  82 NW12G17   29.72R
VIDALIA        SUNNY     55  50  82 NW9       29.73R
EASTMAN        FAIR      56  51  83 NW8       29.78R
HAZLEHURST     FAIR      58  50  75 NW5       29.74R
ALMA           SUNNY     59  49  69 NW12      29.75R
6HR MIN TEMP:  57; 6HR MAX TEMP:  59;

WAYCROSS       SUNNY     58  51  76 NW7       29.75R
JESUP          FAIR      61  54  77 NW10      29.73R
BAXLEY         FAIR      59  50  72 NW8       29.74R
BRUNSWICK      SUNNY     64  55  72 W8        29.73R
SAINT SIMONS   SUNNY     60  50  69 W9G21     29.71R
6HR MIN TEMP:  59; 6HR MAX TEMP:  64;


$$

SCZ027-028-034-036>038-045-046-048>050-GAZ119-141-051300-
...LAKE AND SUPPLEMENTAL COASTAL OBSERVATIONS...

STATION/POSITION TIME  TEMP    WIND        PRES    WAVE   SWELL
                       AIR SEA DIR/SP/G            HT/PER HT/PER/DIR
                 (UTC) (F)     (DEG/KT/KT) (MB)    (FT/S) (FT/S/D)
WINYAH BAY       NOT AVBL
LAKE MURRAY      1100   53     290/  5/ 11 1002.7R
ACE BASIN NERRS  NOT AVBL
FORT PULASKI     1100   61 74  290/ 15/ 20 1004.4R
SAPELO ISLAND    1100   60     270/ 12     1005.0S

$$

ANZ835-935-AMZ111-154-330-350-352-354-370-450-454-472-051300-
...C-MAN AND BUOY OBSERVATIONS...

STATION/POSITION TIME  TEMP    WIND        PRES    WAVE   SWELL
                       AIR SEA DIR/SP/G            HT/PER HT/PER/DIR
                 (UTC) (F)     (DEG/KT/KT) (MB)    (FT/S) (FT/S/D)
BUOY 41004       1150   67 74  280/ 21/ 25 1000.7R   4/ 5   2/ 8
BUOY 41008       NOT AVBL
FOLLY BEACH CMAN 1100   60     280/  9/ 14 1002.3R
CAPERS NEARSHORE 1108   62 70  290/ 17/ 23 1001.2R
FRIPP NEARSHORE  1108   62 69  300/ 19/ 25 1002.4R


STATION/POSITION TIME  TEMP    WIND        PRES    WAVE   SWELL
                       AIR SEA DIR/SP/G            HT/PER HT/PER/DIR
                 (UTC) (F)     (DEG/KT/KT) (MB)    (FT/S) (FT/S/D)
5E ST. MARYS GA  1121      71                N/A     3/ 3
FRYING PAN BUOY  1100   68 71  300/ 10/ 12  999.4R
BUOY 41025       1150   60 71   10/ 17/ 21  998.9F   4/ 7   2/120/ 9
CAPE LOOKOUT NC  1100   63      40/ 17/ 20  999.0F
BUOY 41002       1150   67 73   10/ 12/ 14  998.2F   5/ 7   5/230/ 7
BUOY 41010       1120   75 78  310/ 21/ 25 1003.8R
ST AUGUSTINE FL  1200   61 70  290/  8/ 12 1008.2R


$$




USA.gov is the U.S. government's official web portal to all federal, state and local government web resources and services.